Monte Scuro, Italy

4:22 PM CEST on June 27, 2017 (GMT +0200)
Monte Scuro

Weather History for LIBQ - January, 2013

Change the Weather History Date:

Wednesday, January 30, 2013

  Actual Average Record
Temperature  
Mean Temperature 37 °F -  
Max Temperature 44 °F 36 °F 53 °F (2002)
Min Temperature 30 °F 28 °F 10 °F (1999)
Degree Days  
Heating Degree Days 28    
Moisture  
Dew Point 27 °F    
Average Humidity 67    
Maximum Humidity 100    
Minimum Humidity 19    
Precipitation  
Precipitation 0.00 in 0.11 in - ()
Sea Level Pressure  
Sea Level Pressure 30.06 in    
Wind  
Wind Speed 7 mph ()    
Max Wind Speed 12 mph    
Max Gust Speed -    
Visibility 5.2 miles    
Events Fog    
Averages and records for this station are not official NWS values.
T = Trace of Precipitation, MM = Missing Value Source: Averaged Metar Reports

Daily Weather History Graph

Daily Weather History Graph

Search for Another Location

Airport or City:

Trip Planner

Search our weather history database for the weather conditions in past years. The results will help you decide how hot, cold, wet, or windy it might be!

Date:

Astronomy

Jan. 30, 2013 Rise Set
Actual Time 7:03 AM CET 5:12 PM CET
Civil Twilight 6:34 AM CET 5:41 PM CET
Nautical Twilight 6:02 AM CET 6:13 PM CET
Astronomical Twilight 5:31 AM CET 6:44 PM CET
Moon 8:51 PM CET (1/30) 8:23 AM CET (1/30)
Length of Visible Light 11h 06m
Length of Day
10h 09m
Waning Gibbous, 89% of the Moon is Illuminated
Jan 30
Waning Gibbous
Feb 3
Last Quarter
Feb 10
New
Feb 17
First Quarter
Feb 25
Full

Hourly Weather History & Observations

Time (CET) Temp. Windchill Dew Point Humidity Pressure Visibility Wind Dir Wind Speed Gust Speed Precip Events Conditions
12:55 AM 32.0 °F 26.4 °F 26.6 °F 80% 30.06 in - WNW 5.8 mph - N/A   Clear
1:00 AM 32 °F - 27 °F 75%  in 6 mi WNW 5.8 mph - -  
1:55 AM 33.8 °F 29.6 °F 21.2 °F 60% 30.06 in - West 4.6 mph - N/A   Clear
2:55 AM 30.2 °F 25.4 °F 30.2 °F 100% 30.06 in - West 4.6 mph - N/A   Clear
3:55 AM 30.2 °F 20.8 °F 30.2 °F 100% 30.04 in 0.0 mi WSW 11.5 mph - N/A Fog Light Freezing Fog
4:00 AM 31 °F - 31 °F 97%  in 0 mi WSW 11.5 mph - - Fog Heavy Fog
4:55 AM 32.0 °F 23.0 °F 32.0 °F 100% 30.04 in 0.0 mi West 11.5 mph - N/A Fog Light Freezing Fog
5:55 AM 32.0 °F 24.2 °F 26.6 °F 80% 30.04 in 6.2 mi West 9.2 mph - N/A   Partly Cloudy
6:55 AM 33.8 °F 27.7 °F 26.6 °F 75% 30.06 in - West 6.9 mph - N/A   Clear
7:00 AM 33 °F - 26 °F 67%  in 6 mi West 6.9 mph - -  
7:55 AM 32.0 °F 25.6 °F 26.6 °F 80% 30.06 in - West 6.9 mph - N/A   Clear
8:55 AM 33.8 °F 29.6 °F 28.4 °F 81% 30.06 in - West 4.6 mph - N/A   Clear
9:55 AM 35.6 °F 30.7 °F 28.4 °F 75% 30.06 in - West 5.8 mph - N/A   Clear
10:00 AM 36 °F - 29 °F 67%  in 12 mi West 5.8 mph - -  
10:55 AM 35.6 °F 28.6 °F 33.8 °F 93% 30.06 in - North 9.2 mph - N/A   Clear
11:55 AM 35.6 °F 29.9 °F 30.2 °F 81% 30.06 in 6.2 mi NNE 6.9 mph - N/A   Mostly Cloudy
12:55 PM 35.6 °F 28.6 °F 33.8 °F 93% 30.06 in 0.9 mi West 9.2 mph - N/A   Mostly Cloudy
1:00 PM 36 °F - 35 °F 92%  in 1 mi West 9.2 mph - -   Mist
1:55 PM 37.4 °F 30.8 °F 32.0 °F 81% 30.06 in 6.2 mi East 9.2 mph - N/A   Partly Cloudy
2:55 PM 41.0 °F 35.2 °F 17.6 °F 39% 30.06 in 6.2 mi East 9.2 mph - N/A   Partly Cloudy
3:55 PM 42.8 °F 37.5 °F 15.8 °F 34% 30.04 in - East 9.2 mph - N/A   Clear
4:00 PM 44 °F - 16 °F 19%  in 12 mi East 9.2 mph - -   Partly Cloudy
4:55 PM 41.0 °F 36.4 °F 24.8 °F 53% 30.04 in 6.2 mi North 6.9 mph - N/A   Partly Cloudy
5:55 PM 42.8 °F 38.6 °F 17.6 °F 36% 30.06 in 6.2 mi North 6.9 mph - N/A   Partly Cloudy
6:55 PM 42.8 °F 37.5 °F 17.6 °F 36% 30.06 in 5.0 mi North 9.2 mph - N/A   Scattered Clouds
7:00 PM 43 °F - 18 °F 23%  in 5 mi North 9.2 mph - -  
7:55 PM 44.6 °F 39.7 °F 19.4 °F 37% 30.06 in 5.0 mi North 9.2 mph - N/A   Partly Cloudy
8:55 PM 44.6 °F 40.7 °F 23.0 °F 43% 30.06 in 6.2 mi North 6.9 mph - N/A   Partly Cloudy
9:55 PM 42.8 °F 38.6 °F 32.0 °F 66% 30.06 in 6.2 mi North 6.9 mph - N/A   Partly Cloudy
10:00 PM 43 °F - 31 °F 53%  in 6 mi North 6.9 mph - -   Scattered Clouds
10:55 PM 44.6 °F 40.7 °F 35.6 °F 71% 30.06 in - North 6.9 mph - N/A   Clear
11:55 PM 41.0 °F 36.4 °F 32.0 °F 70% 30.06 in - North 6.9 mph - N/A   Clear